Weather in Pituffik

Greenland     76°24′00″N   68°36′00″W
temp.,
°C
wind,
m/s
gust,
m/s
humid.,
%
clouds,
%
prec.,
mm/h
press.,
hPa
HPBL,
m
14 june, mon
mon1401:00+2ene11645 0.0 1017144
04:00+1ene11631 0.0 1018112
07:00+1nne12652 0.0 1019194
10:00+2nne11582 0.0 1019308
13:00+3nnw21573 0.0 1019394
16:00+3nnw22601 0.0 1019416
19:00+3nnw21602 0.0 1019350
22:00+2n11625 0.0 1018272
15 june, tue
tue1501:00+2ne116337 0.0 1018197
04:00+2ene1162100 0.0 1017136
07:00+3ne1160100 0.0 1017157
10:00+4ene0156100 0.0 1016260
13:00+4nw1157100 0.0 1015441
16:00+4wnw1160100 0.0 1015362
19:00+3wsw0264100 0.0 1015376
22:00+3se3474100 0.0 1015411
16 june, wed
wed1601:00+2ese4673100 0.1 1014333
04:00+1ese61173100 0.4 1014415
07:00−1ese71285100 0.6 1014442
10:000ese6987100 1.7 1014359
13:00+1ese6881100 0.3 1014337
16:00+2ese577098 0.4 1014358
19:00+2ese466399 0.0 1014346
22:00+2ese4560100 0.0 1013248
17 june, thu
thu1701:00+1ese345969 0.0 1012147
04:000ese345875 0.0 1010107
07:00+1ese345447 0.0 1009157
10:00+2ese34505 0.0 1008327
13:00+3ese24505 0.0 1007462
16:00+4ese45493 0.0 1007515
19:00+3ese57440 0.0 1007429
22:00+2ese69480 0.0 1008374
18 june, fri
fri1801:00+1ese58560 0.0 1008296
04:000ese46570 0.0 1009220
07:00+1e45550 0.0 1009208
10:00+3e35520 0.0 1009326
13:00+4ese44500 0.0 1009472
16:00+5ese45474 0.0 1009562
19:00+5se44480 0.0 1009493
22:00+4sse11501 0.0 1009480